, FL

(GMT )
Crestview

Weather History for KEGI - October, 2012

Change the Weather History Date:

Tuesday, October 2, 2012

  Actual Average Record
Temperature  
Mean Temperature 69 °F -  
Max Temperature 78 °F - - ()
Min Temperature 60 °F - - ()
Cooling Degree Days 4    
Growing Degree Days 19 (Base 50)    
Moisture  
Dew Point 60 °F    
Average Humidity 76    
Maximum Humidity 96    
Minimum Humidity 51    
Precipitation  
Precipitation 0.00 in - - ()
Sea Level Pressure  
Sea Level Pressure 29.86 in    
Wind  
Wind Speed 5 mph (West)    
Max Wind Speed 10 mph    
Max Gust Speed -    
Visibility 10 miles    
Events      
Averages and records for this station are not official NWS values.
T = Trace of Precipitation, MM = Missing Value Source: NWS Daily Summary

Daily Weather History Graph

Daily Weather History Graph

Search for Another Location

Airport or City:

Trip Planner

Search our weather history database for the weather conditions in past years. The results will help you decide how hot, cold, wet, or windy it might be!

Date:

Astronomy

Oct. 02, 2012 Rise Set
Actual Time 6:40 AM CDT 6:29 PM CDT
Civil Twilight 6:16 AM CDT 6:53 PM CDT
Nautical Twilight 5:48 AM CDT 7:21 PM CDT
Astronomical Twilight 5:20 AM CDT 7:49 PM CDT
Moon 7:56 PM CDT (10/2) 8:53 AM CDT (10/2)
Length of Visible Light 12h 37m
Length of Day
11h 48m
Waning Gibbous, 94% of the Moon is Illuminated
Oct 2
Waning Gibbous
Oct 8
Last Quarter
Oct 15
New
Oct 21
First Quarter
Oct 29
Full

Hourly Weather History & Observations

Time (CDT) Temp. Dew Point Humidity Pressure Visibility Wind Dir Wind Speed Gust Speed Precip Events Conditions
12:55 AM 67.8 °F 61.0 °F 79% 29.73 in 10.0 mi West 5.8 mph - N/A   Overcast
1:55 AM 67.3 °F 61.0 °F 80% 29.73 in 10.0 mi WSW 3.5 mph - N/A   Overcast
2:55 AM 66.0 °F 60.6 °F 83% 29.74 in 10.0 mi WSW 4.6 mph - N/A   Scattered Clouds
3:55 AM 64.0 °F 60.1 °F 87% 29.75 in 10.0 mi Calm Calm - N/A   Clear
4:55 AM 60.6 °F 59.5 °F 96% 29.75 in 10.0 mi Calm Calm - N/A   Clear
5:55 AM 63.1 °F 61.0 °F 93% 29.78 in 10.0 mi West 3.5 mph - N/A   Overcast
6:55 AM 63.9 °F 60.8 °F 90% 29.80 in 10.0 mi WNW 5.8 mph - N/A   Overcast
7:55 AM 64.9 °F 61.2 °F 88% 29.82 in 10.0 mi West 3.5 mph - N/A   Overcast
8:55 AM 68.0 °F 61.0 °F 78% 29.85 in 10.0 mi West 8.1 mph - N/A   Scattered Clouds
9:55 AM 70.9 °F 60.6 °F 70% 29.86 in 10.0 mi WNW 9.2 mph - N/A   Mostly Cloudy
10:59 AM 73.2 °F 60.3 °F 64% 29.87 in 10.0 mi SW 9.2 mph - N/A   Mostly Cloudy
11:55 AM 73.4 °F 61.2 °F 65% 29.87 in 10.0 mi West 8.1 mph - N/A   Mostly Cloudy
12:55 PM 75.2 °F 60.8 °F 61% 29.87 in 10.0 mi WNW 9.2 mph - N/A   Mostly Cloudy
1:55 PM 75.9 °F 60.4 °F 59% 29.87 in 10.0 mi West 8.1 mph - N/A   Mostly Cloudy
2:55 PM 78.3 °F 60.4 °F 54% 29.87 in 10.0 mi WNW 8.1 mph - N/A   Mostly Cloudy
3:55 PM 78.3 °F 59.0 °F 51% 29.88 in 10.0 mi West 10.4 mph - N/A   Mostly Cloudy
4:55 PM 78.1 °F 59.0 °F 52% 29.88 in 10.0 mi West 9.2 mph - N/A   Scattered Clouds
5:55 PM 75.2 °F 59.2 °F 57% 29.89 in 10.0 mi WNW 4.6 mph - N/A   Scattered Clouds
6:55 PM 70.3 °F 59.5 °F 69% 29.91 in 10.0 mi NW 3.5 mph - N/A   Scattered Clouds
7:55 PM 65.7 °F 60.3 °F 83% 29.94 in 10.0 mi Calm Calm - N/A   Scattered Clouds
8:55 PM 63.5 °F 59.9 °F 88% 29.97 in 10.0 mi Calm Calm - N/A   Scattered Clouds
9:55 PM 62.4 °F 59.2 °F 89% 30.00 in 10.0 mi Calm Calm - N/A   Partly Cloudy
10:55 PM 61.7 °F 58.6 °F 90% 30.01 in 10.0 mi North 4.6 mph - N/A   Partly Cloudy
11:55 PM 60.8 °F 58.8 °F 93% 30.02 in 10.0 mi Calm Calm - N/A   Partly Cloudy